Wind_Speed
34 35 35 36 37 37 37 37 37 37 38 39 39 41 42 43 44 46 48 49 50 51 52 53 53 54 54 54 55 55 55 55 55 55 55 54 52 52 51 50 50 49 48
33 34 35 35 36 36 36 36 36 37 37 38 39 40 41 41 43 45 46 47 48 49 50 52 52 53 54 54 54 54 54 54 56 56 57 56 54 52 51 51 50 50 50
33 33 33 33 34 34 35 35 35 36 37 38 39 39 40 40 41 42 45 45 46 47 47 49 50 51 53 53 53 54 53 54 55 56 56 57 56 54 52 50 50 51 51
30 31 31 32 32 33 33 34 34 35 36 36 37 37 37 37 38 39 40 42 43 44 45 46 47 49 51 51 52 53 53 52 52 54 55 56 57 56 54 52 51 52 52
26 27 28 29 30 30 31 31 32 32 33 33 33 34 34 34 34 34 36 38 40 41 43 45 46 47 48 50 50 51 53 53 52 52 54 55 56 56 56 54 52 52 52
23 23 24 26 27 27 28 28 29 30 31 31 31 31 32 32 32 33 33 34 35 37 39 42 44 45 47 49 49 51 52 54 54 53 52 53 54 55 55 56 55 54 53
19 21 22 23 24 25 26 27 28 28 29 30 30 30 31 31 31 32 31 32 33 35 36 38 40 43 46 48 49 51 52 53 54 54 53 53 52 53 55 55 55 54 53
18 19 21 22 23 23 24 25 26 26 27 28 28 28 29 29 30 31 30 31 33 33 35 36 37 39 42 44 46 47 49 51 52 53 52 53 53 54 55 55 55 55 54
17 18 19 20 21 22 23 24 25 25 26 26 27 28 28 29 30 30 31 31 32 32 33 34 34 36 38 40 43 45 46 48 50 51 52 52 52 53 54 54 55 56 56
18 19 20 20 21 22 23 24 24 24 24 25 26 27 28 29 29 30 30 31 31 32 32 33 33 35 36 38 40 42 43 45 46 48 50 51 52 53 54 55 55 55 56
17 19 20 20 20 21 21 22 22 22 23 24 25 26 27 28 28 29 29 30 31 32 33 33 34 34 36 37 38 39 41 43 45 47 49 50 51 52 52 53 55 56 57
17 18 18 19 20 20 21 21 22 23 24 25 26 26 27 28 28 29 30 31 32 32 33 33 34 35 36 37 39 39 40 41 43 45 47 49 51 52 53 53 55 57 58
16 16 17 18 19 20 20 21 22 23 24 25 26 26 27 27 28 29 30 31 31 31 32 33 34 35 36 36 37 38 40 40 42 44 45 48 50 51 54 55 56 57 58
15 17 18 18 19 20 21 22 23 23 24 24 25 25 26 27 27 29 30 31 32 32 33 34 35 36 37 38 39 40 41 43 44 45 46 47 49 51 53 54 56 57 58
16 17 18 18 19 20 21 22 23 24 24 24 25 26 27 28 29 30 31 32 33 33 34 35 35 36 37 39 40 41 43 44 45 46 48 49 50 51 53 54 55 56 57
18 18 19 19 20 21 22 23 24 24 24 25 26 27 28 29 30 31 32 33 33 34 35 35 36 37 39 40 41 42 43 44 45 46 47 49 50 51 53 54 56 57 58
19 19 20 20 21 22 23 24 24 25 25 27 28 28 29 31 32 33 33 34 34 35 36 36 37 38 39 40 41 42 43 44 46 47 48 49 49 51 52 53 55 56 57
21 21 22 22 23 23 24 24 25 25 27 28 29 30 32 32 33 33 34 35 36 36 36 36 37 38 39 40 41 42 43 44 45 46 46 48 49 51 52 53 54 55 56
23 23 24 24 24 25 26 26 27 27 28 29 30 31 33 33 34 35 35 36 37 37 38 38 39 40 41 42 43 43 43 44 45 46 47 49 50 52 53 53 54 54 55
25 25 26 26 26 27 28 28 29 29 30 31 32 33 33 34 34 35 36 37 37 38 39 39 40 41 42 43 43 43 43 44 45 47 48 50 51 51 52 53 53 54 54
27 28 28 29 29 29 29 29 30 31 32 34 35 35 35 35 36 36 37 37 38 38 39 39 40 41 42 42 42 43 43 44 45 46 47 49 50 50 51 52 52 52 53
29 29 30 30 31 31 31 31 32 33 34 35 36 37 37 37 37 38 38 39 39 40 40 40 41 41 42 42 42 43 43 44 45 45 46 47 48 49 50 50 51 51 51
31 32 32 32 32 33 33 34 34 35 36 37 38 38 38 38 39 39 40 40 41 41 41 42 42 42 42 42 42 42 43 43 44 44 45 46 47 47 47 48 49 50 50
33 33 33 34 34 34 35 36 37 37 38 39 40 40 40 40 40 40 41 41 42 42 42 43 42 42 42 42 42 41 42 42 43 44 44 44 44 44 44 46 47 47 48
34 34 35 35 35 35 36 37 38 39 39 40 40 41 40 41 41 41 41 42 43 43 43 43 42 42 41 41 41 41 41 42 42 43 43 43 42 42 43 43 44 44 45
35 35 36 36 36 36 37 38 39 39 40 40 41 41 41 41 41 41 42 43 43 43 43 43 42 41 41 40 40 41 41 42 42 42 41 41 40 40 41 41 41 41 42
Wind_Direction
266 268 269 270 270 271 272 271 272 272 273 273 274 273 273 271 269 267 264 263 262 261 261 259 258 258 258 258 257 257 256 255 256 255 255 255 255 256 257 257 257 257 258
268 269 270 271 272 272 272 273 273 273 274 274 274 274 274 272 270 268 266 264 263 263 261 259 258 256 257 257 256 255 255 255 256 256 256 255 256 255 255 257 257 257 257
269 270 270 272 273 274 274 274 274 275 276 276 275 275 276 274 273 271 268 266 265 263 262 259 258 257 257 257 255 254 253 253 253 255 256 256 255 255 255 256 257 257 256
269 270 271 273 275 275 276 276 277 278 278 278 277 275 275 274 274 273 271 268 266 264 262 260 260 259 258 257 256 253 253 253 253 254 255 256 256 255 254 255 256 257 256
271 273 274 275 277 278 279 280 280 280 280 280 280 279 277 276 275 275 274 271 268 266 264 262 261 261 259 258 257 255 254 254 254 254 255 256 257 257 256 254 254 255 255
274 275 277 279 280 281 281 282 283 283 282 281 280 280 280 278 276 275 274 274 272 270 268 266 264 262 260 259 258 257 256 256 256 256 256 256 257 257 256 256 255 255 255
276 278 280 282 283 283 284 285 285 285 284 283 283 282 281 280 278 277 275 275 274 273 272 270 267 264 262 260 259 258 258 257 256 257 257 257 258 258 257 257 257 257 256
277 280 282 284 284 285 286 287 287 287 287 286 285 285 284 283 281 278 278 277 277 276 275 273 271 269 266 263 261 260 260 258 257 257 258 259 260 260 258 258 258 257 256
280 282 285 286 287 288 289 289 290 290 290 289 288 287 286 284 283 282 280 279 278 277 276 274 273 271 269 266 264 262 261 260 259 259 258 259 259 260 259 258 258 257 257
285 287 288 289 290 291 292 292 293 293 292 292 290 289 288 287 286 284 282 281 280 278 277 275 274 272 271 269 267 265 263 262 261 260 259 259 260 260 259 257 257 258 257
287 287 289 291 293 294 295 296 296 296 296 295 294 293 291 289 288 287 285 283 282 280 278 276 275 274 272 270 268 266 266 264 262 260 260 260 261 260 260 259 258 258 258
289 289 290 292 294 295 297 299 300 299 299 299 297 296 295 293 291 289 288 287 285 282 280 278 276 274 273 272 270 269 267 266 265 263 261 261 261 261 260 260 260 260 260
291 291 293 294 296 298 299 302 303 304 304 303 302 300 299 296 294 293 291 290 288 286 283 280 278 276 275 273 272 270 269 268 268 266 264 264 263 262 262 262 262 261 261
297 297 299 299 299 301 302 304 306 306 307 307 306 305 303 301 299 297 295 293 290 288 285 284 282 279 277 276 275 273 272 271 270 269 268 267 266 265 264 264 263 263 262
301 301 303 302 302 304 306 306 307 309 309 309 308 306 304 303 302 300 299 297 294 291 289 287 285 282 281 279 278 276 274 274 273 271 270 269 268 267 266 266 265 265 264
307 305 303 304 304 306 308 309 310 309 310 310 308 307 306 305 304 304 303 301 298 295 292 290 287 285 284 283 281 279 277 276 275 273 272 271 270 269 268 268 267 266 266
308 308 306 306 306 307 308 309 309 309 308 308 308 307 307 307 307 306 305 303 300 297 295 293 290 288 287 286 284 282 281 279 278 276 275 274 273 272 271 270 269 268 267
306 307 307 307 307 307 308 309 310 310 310 309 308 309 308 308 307 307 306 305 303 301 298 295 293 292 290 288 286 285 283 282 280 279 278 277 276 275 274 272 271 270 269
305 305 305 305 305 305 306 308 309 311 312 313 312 311 310 308 307 307 306 306 305 303 300 298 296 295 293 291 289 287 286 284 282 281 280 279 278 277 276 275 273 271 270
304 303 303 303 304 305 306 307 308 310 311 312 312 311 310 309 308 308 307 306 305 304 302 300 299 297 295 294 292 290 289 287 286 284 283 281 280 279 278 277 275 273 272
302 303 302 302 303 304 305 305 307 308 309 310 310 310 310 309 308 308 309 308 307 306 305 303 302 300 299 298 296 294 292 291 290 288 286 284 283 281 280 278 276 274 273
301 301 301 301 302 303 304 304 305 307 308 309 310 310 309 308 308 308 308 308 308 308 307 306 304 303 302 300 297 295 295 294 293 292 290 288 286 284 281 279 278 276 274
299 300 300 300 300 301 302 303 304 305 307 309 309 309 309 308 308 308 308 308 308 308 308 307 305 304 303 302 300 299 298 298 297 295 294 291 289 286 282 280 278 277 275
298 299 299 299 300 300 301 301 302 303 306 308 309 309 309 308 308 308 309 309 309 309 309 308 306 305 304 303 302 301 301 300 299 298 297 295 292 288 285 282 280 277 275
298 299 300 300 300 300 301 301 302 303 305 307 308 308 308 308 309 309 310 310 311 311 310 309 308 306 305 304 302 301 301 301 300 299 298 296 294 291 289 286 283 279 278
299 299 300 299 299 300 301 302 303 303 305 306 307 308 308 308 309 310 311 312 312 312 312 311 310 309 307 305 304 304 303 303 302 302 300 298 296 294 292 290 286 283 280
Height
5744 5744 5744 5743 5743 5742 5741 5741 5740 5738 5737 5735 5734 5732 5730 5728 5727 5726 5726 5726 5726 5727 5728 5729 5731 5733 5734 5736 5737 5739 5741 5743 5745 5746 5748 5750 5752 5754 5757 5758 5760 5762 5763
5737 5737 5736 5736 5735 5734 5733 5732 5731 5729 5727 5725 5724 5722 5720 5718 5716 5715 5714 5714 5714 5714 5715 5716 5717 5719 5721 5722 5723 5726 5728 5730 5732 5733 5735 5737 5740 5742 5744 5746 5748 5750 5751
5730 5729 5729 5728 5727 5726 5725 5724 5722 5720 5718 5716 5714 5712 5710 5707 5705 5704 5703 5703 5702 5703 5703 5703 5705 5706 5707 5709 5710 5713 5714 5716 5718 5719 5721 5724 5727 5730 5732 5734 5736 5737 5739
5723 5722 5721 5720 5719 5718 5717 5715 5714 5711 5709 5707 5704 5702 5700 5698 5696 5694 5693 5692 5691 5691 5691 5692 5693 5694 5695 5696 5697 5699 5701 5703 5705 5706 5708 5710 5713 5716 5719 5722 5723 5724 5726
5716 5715 5714 5713 5712 5711 5709 5707 5705 5703 5700 5698 5695 5693 5691 5689 5687 5685 5683 5682 5681 5681 5681 5681 5681 5682 5683 5684 5685 5686 5688 5690 5692 5694 5695 5696 5698 5701 5704 5708 5710 5712 5714
5710 5709 5708 5707 5705 5703 5702 5700 5698 5695 5692 5690 5687 5685 5682 5680 5679 5677 5675 5673 5672 5671 5671 5670 5670 5670 5671 5672 5673 5674 5676 5677 5679 5681 5682 5684 5686 5688 5689 5693 5696 5698 5700
5704 5703 5702 5700 5699 5697 5695 5693 5690 5687 5684 5682 5679 5677 5674 5672 5670 5669 5667 5665 5664 5663 5662 5660 5659 5659 5660 5660 5661 5662 5664 5665 5666 5668 5669 5671 5672 5674 5676 5679 5681 5684 5687
5699 5697 5696 5694 5693 5690 5688 5686 5683 5680 5677 5674 5672 5669 5667 5665 5663 5661 5659 5658 5656 5654 5653 5651 5649 5649 5648 5648 5649 5649 5651 5652 5654 5655 5656 5658 5659 5661 5663 5665 5667 5669 5672
5694 5692 5691 5689 5687 5684 5682 5679 5676 5673 5670 5667 5665 5662 5659 5657 5655 5653 5651 5650 5648 5646 5644 5642 5640 5639 5638 5638 5638 5638 5639 5640 5641 5643 5644 5645 5646 5647 5649 5650 5652 5655 5658
5689 5687 5685 5683 5681 5678 5676 5673 5670 5667 5664 5661 5658 5655 5652 5650 5648 5645 5643 5641 5639 5637 5635 5633 5632 5630 5629 5628 5627 5627 5627 5628 5628 5629 5630 5631 5633 5634 5635 5637 5638 5639 5642
5684 5682 5680 5677 5675 5673 5670 5667 5664 5661 5658 5654 5651 5648 5645 5642 5640 5637 5635 5633 5631 5628 5626 5624 5622 5621 5619 5618 5617 5616 5616 5615 5615 5616 5617 5618 5619 5620 5621 5622 5624 5625 5626
5679 5677 5674 5672 5670 5667 5664 5661 5658 5655 5652 5648 5645 5642 5638 5635 5632 5629 5627 5624 5622 5619 5617 5615 5613 5612 5610 5608 5607 5606 5605 5604 5603 5603 5604 5604 5605 5606 5607 5608 5609 5610 5611
5674 5672 5670 5667 5665 5662 5659 5656 5653 5649 5645 5642 5638 5635 5631 5628 5625 5622 5619 5616 5613 5610 5608 5606 5604 5602 5600 5598 5597 5595 5593 5592 5591 5591 5591 5591 5591 5591 5592 5592 5593 5594 5595
5670 5668 5665 5662 5659 5656 5653 5650 5647 5643 5639 5635 5632 5628 5625 5621 5618 5614 5611 5607 5604 5601 5599 5596 5594 5591 5590 5588 5586 5584 5582 5580 5579 5578 5577 5577 5576 5576 5576 5576 5576 5577 5577
5666 5663 5660 5657 5654 5651 5648 5644 5641 5637 5633 5629 5626 5622 5618 5615 5611 5607 5603 5599 5596 5593 5589 5586 5583 5581 5579 5577 5574 5572 5570 5568 5566 5565 5563 5562 5561 5561 5560 5560 5560 5560 5560
5661 5658 5655 5652 5649 5646 5642 5638 5635 5631 5627 5623 5619 5615 5612 5608 5604 5599 5595 5591 5587 5583 5580 5577 5574 5571 5568 5565 5562 5560 5558 5555 5553 5551 5549 5547 5546 5545 5544 5543 5542 5542 5541
5657 5654 5650 5647 5644 5640 5637 5633 5629 5625 5621 5617 5613 5609 5605 5600 5596 5592 5587 5583 5578 5574 5570 5567 5563 5560 5557 5553 5550 5547 5544 5541 5539 5537 5534 5532 5530 5529 5527 5526 5524 5523 5522
5652 5648 5645 5642 5638 5634 5631 5627 5623 5619 5615 5611 5606 5602 5597 5592 5588 5583 5579 5574 5569 5565 5561 5556 5553 5549 5545 5541 5538 5534 5531 5528 5525 5522 5519 5517 5515 5512 5510 5509 5507 5506 5504
5646 5643 5639 5636 5632 5629 5625 5621 5617 5612 5608 5604 5599 5594 5589 5584 5580 5575 5570 5565 5560 5555 5550 5546 5541 5537 5533 5528 5525 5521 5518 5514 5511 5508 5504 5501 5499 5496 5493 5492 5490 5489 5486
5640 5636 5633 5629 5626 5622 5618 5614 5610 5605 5601 5596 5591 5587 5582 5576 5571 5566 5561 5556 5550 5545 5540 5535 5530 5525 5521 5516 5511 5507 5504 5500 5497 5493 5489 5485 5482 5479 5475 5473 5471 5470 5468
5633 5629 5626 5622 5619 5615 5611 5607 5602 5598 5593 5588 5583 5578 5573 5568 5562 5557 5551 5546 5541 5535 5530 5525 5519 5514 5509 5504 5499 5494 5490 5486 5482 5477 5473 5469 5465 5461 5458 5455 5453 5451 5450
5625 5622 5618 5614 5611 5607 5603 5599 5594 5590 5585 5580 5575 5569 5564 5559 5553 5548 5542 5537 5531 5525 5519 5514 5508 5502 5497 5492 5486 5481 5476 5472 5467 5462 5458 5453 5448 5444 5441 5438 5435 5433 5432
5617 5613 5609 5606 5602 5598 5594 5590 5585 5581 5576 5571 5566 5560 5554 5549 5544 5538 5532 5527 5521 5515 5509 5503 5497 5491 5485 5479 5474 5469 5464 5458 5453 5448 5442 5437 5433 5428 5425 5421 5418 5416 5415
5608 5604 5601 5597 5593 5589 5585 5580 5576 5571 5567 5561 5556 5550 5545 5539 5533 5528 5522 5516 5510 5504 5498 5492 5486 5479 5473 5468 5462 5457 5451 5446 5440 5434 5429 5423 5418 5413 5409 5406 5402 5400 5398
5599 5595 5591 5587 5583 5579 5575 5571 5566 5561 5557 5551 5546 5540 5534 5529 5523 5517 5511 5505 5499 5493 5487 5481 5474 5468 5462 5456 5450 5445 5440 5434 5428 5422 5416 5410 5405 5400 5395 5391 5387 5384 5382
5589 5585 5581 5577 5573 5569 5565 5561 5556 5551 5546 5541 5536 5530 5524 5518 5513 5507 5500 5494 5488 5482 5475 5469 5463 5457 5451 5445 5439 5433 5427 5421 5415 5409 5403 5398 5392 5387 5382 5377 5373 5369 5367